Simultaneous Nadir Overpasses (SNOs) Predictions

Prediction of SNOs between AQUA and METOP-C Satellite Orbit:

Table of predicted SNOs for the next 14.0 days since TLE Epoch: 2/13/2025
Index Date (AQUA) Time (AQUA) Lat,Lon (AQUA) SZA (AQUA ) Date (METOP-C) Time (METOP-C) Lat,Lon (METOP-C) SZA (METOP-C ) Distance(km) Time Diff (sec)
1 02/13/2025 20:10:01 -76.21, 58.59 90.80 02/13/2025 20:09:51 -76.23, 58.64 90.78 1.88 10
2 02/13/2025 20:59:22 76.27,-133.94 89.26 02/13/2025 21:00:30 76.28,-133.83 89.26 2.90 68
3 02/16/2025 08:59:30 -76.20,-133.69 91.68 02/16/2025 08:58:46 -76.21,-133.65 91.67 1.03 44
4 02/16/2025 09:48:51 76.27, 33.77 88.38 02/16/2025 09:49:25 76.26, 33.85 88.37 2.57 34
5 02/18/2025 21:48:56 -76.14, 34.21 92.63 02/18/2025 21:47:43 -76.09, 33.70 92.68 14.69 73
6 02/18/2025 22:38:17 76.22,-158.36 87.43 02/18/2025 22:38:20 76.22,-158.49 87.44 3.65 3
7 02/18/2025 23:27:45 -76.67, 7.77 92.12 02/18/2025 23:28:52 -76.66, 10.41 92.15 67.81 67
8 02/21/2025 11:27:41 76.21, 9.37 86.51 02/21/2025 11:27:13 76.23, 9.29 86.53 2.74 28
9 02/21/2025 12:17:01 -76.28, 176.82 93.43 02/21/2025 12:17:54 -76.26, 176.73 93.45 3.23 53
10 02/24/2025 00:17:04 76.20, 177.10 85.58 02/24/2025 00:16:07 76.22, 177.04 85.60 2.36 57
11 02/24/2025 01:06:24 -76.27, -15.44 94.37 02/24/2025 01:06:48 -76.26, -15.51 94.39 2.35 24
12 02/26/2025 13:06:17 75.81, -13.92 84.23 02/26/2025 13:05:11 75.74, -16.80 84.19 79.07 66
13 02/26/2025 13:55:45 -76.26, 152.31 95.33 02/26/2025 13:55:42 -76.24, 152.22 95.34 3.06 3



Historial Predications of SNOs between AQUA and METOP-C
